Regional Weather Roundup
Issued by NWS

Home | Current Version | Previous Version | Graphics & Text | Print | Product List | Glossary On
Versions: 1 2 3 4 5 6 7 8 9 10 11 12 13 14 15 16 17 18 19 20 21 22 23 24 25 26 27 28 29 30 31 32 33 34 35 36 37 38 39 40 41 42 43 44 45 46 47 48 49 50
931
ASUS45 KBOU 090207
RWRCO

WEATHER ROUNDUP FOR COLORADO
NATIONAL WEATHER SERVICE DENVER/BOULDER CO
700 PM MST MON FEB 08 2016

NOTE: "FAIR" INDICATES FEW OR NO CLOUDS BELOW 12000 FEET WITH NO
SIGNIFICANT WEATHER AND/OR OBSTRUCTIONS TO VISIBILITY.

COZ001>005-013-030-031-090300-
...NORTHWEST COLORADO...

CITY           SKY/WX    TMP DP  RH WIND       PRES   REMARKS
CRAIG          CLOUDY     9   5  84 CALM      30.53S
HAYDEN         CLOUDY    21  12  68 CALM      30.51F
MEEKER         CLOUDY    17  12  80 CALM      30.51R
MOUNT WERNER   NOT AVBL
STEAMBOAT SPGS CLOUDY    22  16  75 CALM      30.51F
WALDEN         CLOUDY    19  12  73 SE8       30.47F WCI   9
$$

COZ006>008-011-090300-
...WEST CENTRAL VALLEYS...

CITY           SKY/WX    TMP DP  RH WIND       PRES   REMARKS
GRAND JUNCTION CLOUDY    25  21  85 E3        30.51R
MONTROSE       CLOUDY    28  21  75 E6        30.51F WCI  22
EAGLE          CLEAR     28  19  69 E5        30.51R WCI  23
RIFLE          CLOUDY    28  17  63 S3        30.51R
DELTA          CLOUDY    32  24  71 NE5       30.51S WCI  27
NUCLA          CLOUDY    39  23  52 NW6       30.49F
$$

COZ017>023-064>068-090300-
...SOUTHWEST COLORADO...

CITY           SKY/WX    TMP DP  RH WIND       PRES   REMARKS
DURANGO        CLOUDY    32  20  61 N3        30.41R
CORTEZ         CLEAR     40  25  55 E7        30.42R
PAGOSA SPRINGS CLOUDY    32  22  65 CALM      30.43R
TELLURIDE      CLOUDY    32  17  54 W6        30.51S WCI  26
WOLF CREEK PAS CLOUDY    27   1  33 N24G32    30.54S WCI  12
$$

COZ009-010-012-014-032>034-037-058>063-090300-
...CENTRAL COLORADO...

CITY           SKY/WX    TMP DP  RH WIND       PRES   REMARKS
ASPEN          CLOUDY    27  17  66 S7        30.49R WCI  19
BUENA VISTA    CLOUDY    37  20  49 NW21      30.39S
COPPER MTN     CLOUDY    23  14  68 W10       30.51S WCI  12
BERTHOUD PASS  FAIR      14   5  67 NW24G31   30.47R WCI  -5
COTTONWOOD PAS CLOUDY    36  12  38 NW12G24   30.43F
GUNNISON       CLOUDY    12   7  79 CALM      30.53S
KREMMLING      CLOUDY    18  14  86 CALM      30.51S
LEADVILLE      CLOUDY    25  14  63 N10       30.46R WCI  15
MONARCH PASS   CLOUDY    23  12  63 MISG      30.59F
SALIDA         NOT AVBL
SUNLIGHT       CLOUDY    27  19  74 W6          N/A  WCI  20
WILKERSON PASS CLOUDY    28   9  43 NW15G24   30.46F WCI  17
$$

COZ069>075-090300-
...SAN LUIS VALLEY/SANGRE DE CRISTO MOUNTAINS...

CITY           SKY/WX    TMP DP  RH WIND       PRES   REMARKS
ALAMOSA        CLOUDY    30  21  69 S3        30.41R
LA VETA PASS   CLOUDY    28  16  59 MISG      30.44S
SAGUACHE       CLOUDY    36  21  55 N16G22    30.42F
$$

COZ035-036-038>040-090300-
...NORTHERN COLORADO FRONT RANGE...

CITY           SKY/WX    TMP DP  RH WIND       PRES   REMARKS
DENVER INTL AP CLOUDY    35  23  61 S10       30.33R WCI  27
DMNS CITY PARK   N/A     40  22  49 E8G17     30.33S
AURORA         MOCLDY    34  23  64 SE8       30.34S WCI  27
FRONT RANGE AP MOCLDY    34  23  64 MISG      30.34R
ERIE MUNI ARPT CLOUDY    34  25  70 CALM      30.33R
BOULDER MUN AP CLOUDY    36  27  69 N3        30.33R
CENTENNIAL     CLOUDY    35  23  61 S7        30.34R WCI  29
BROOMFIELD     MOCLDY    37  25  60 S5        30.33S
FORT COLLINS   CLOUDY    37  25  60 S3        30.33F
LONGMONT       CLOUDY    32  25  74 W5        30.35R WCI  27
$$

COZ041-046-047-076>085-087-088-090300-
...PIKES PEAK/PALMER DIVIDE AND SOUTHERN FOOTHILLS...

CITY           SKY/WX    TMP DP  RH WIND       PRES   REMARKS
COLO. SPRINGS  CLOUDY    28  20  71 NE7       30.38R WCI  21
A. F. ACADEMY  CLOUDY    28  20  72 N2        30.36S
SCHRIEVER AFB  NOT AVBL
ELLICOTT       NOT AVBL
FALCON         CLOUDY    26  19  75 W8        30.38R WCI  18
FORT CARSON    PTCLDY    29  22  75 NW7       30.36R WCI  22
LIMON          CLOUDY    30  23  75 W8        30.33R WCI  22
MONUMENT HILL  CLOUDY    28  18  64 SW6       30.37S WCI  22
TRINIDAD       CLOUDY    29  18  63 S9        30.38S WCI  20
$$

COZ042>045-048>051-090-091-090300-
...NORTHEAST COLORADO...

CITY           SKY/WX    TMP DP  RH WIND       PRES   REMARKS
GREELEY ARPT   CLOUDY    27  19  74 NW9       30.33S WCI  17
AKRON          CLOUDY    37  28  70 NW21      30.29R
BURLINGTON     CLOUDY    31  23  72 NW14      30.28S WCI  21
WRAY           CLOUDY    38  30  71 NW13      30.27S
STERLING       CLOUDY    36  30  80 NW12      30.29S
HOLYOKE        CLOUDY    37  30  75 NW10      30.27F
FORT MORGAN    CLOUDY    38  27  65 N18       30.32R
$$

COZ086-089-092>099-090300-
...SOUTHEAST COLORADO...

CITY           SKY/WX    TMP DP  RH WIND       PRES   REMARKS
PUEBLO         CLOUDY    36  24  62 CALM      30.36S
LA JUNTA       CLOUDY    39  23  52 SW13      30.35S
LAMAR          CLOUDY    33  24  69 W9        30.32F WCI  25
SPRINGFIELD      N/A     28  20  71 W9        30.34S WCI  19
$$




USA.gov is the U.S. government's official web portal to all federal, state and local government web resources and services.